When you browse on this site, cookies collect data to enhance your experience and personalize the content and advertising you see.
Visit our Privacy Policy to learn more. By continuing to use the site, you agree to this use of cookies and data.
  • In Schweiz
  • Länderverzeichnis
  • Für 7 Tage
  • Wassertemperatur
  • Wetterkarte
  • Widgets
  • user-avatar
    Anmelden

    Stündliche Wetter Barra

    Heute, 20 Oktober, Sonntag

    Zeit Temperatur Niederschläge Wind Luftdruck Luftfeuchtigkeit
    00:00 +29°C° 0 mm 4 m/S 757 mmHg 83%
    01:00 +29°C° 0 mm 4 m/S 757 mmHg 83%
    02:00 +29°C° 0 mm 3 m/S 756 mmHg 82%
    03:00 +29°C° 0 mm 3 m/S 756 mmHg 80%
    04:00 +29°C° 0 mm 3 m/S 756 mmHg 78%
    05:00 +29°C° 0 mm 3 m/S 756 mmHg 77%
    06:00 +29°C° 0 mm 3 m/S 757 mmHg 73%
    07:00 +30°C° 0 mm 3 m/S 757 mmHg 70%
    08:00 +31°C° 0 mm 3 m/S 758 mmHg 67%
    09:00 +33°C° 0 mm 3 m/S 758 mmHg 59%
    10:00 +35°C° 0 mm 3 m/S 757 mmHg 50%
    11:00 +36°C° 0 mm 3 m/S 757 mmHg 42%
    12:00 +37°C° 0 mm 3 m/S 757 mmHg 40%
    13:00 +37°C° 0 mm 3 m/S 756 mmHg 38%
    14:00 +38°C° 0 mm 3 m/S 755 mmHg 35%
    15:00 +36°C° 0 mm 4 m/S 755 mmHg 44%
    16:00 +35°C° 0 mm 4 m/S 755 mmHg 52%
    17:00 +33°C° 0 mm 5 m/S 756 mmHg 61%
    18:00 +32°C° 0 mm 5 m/S 756 mmHg 64%
    19:00 +32°C° 0 mm 5 m/S 756 mmHg 67%
    20:00 +30°C° 0 mm 4 m/S 757 mmHg 70%
    21:00 +29°C° 0 mm 4 m/S 757 mmHg 68%
    22:00 +29°C° 0 mm 4 m/S 757 mmHg 65%
    23:00 +29°C° 0 mm 4 m/S 757 mmHg 62%

    Morgen, 21 Oktober, Montag

    Zeit Temperatur Niederschläge Wind Luftdruck Luftfeuchtigkeit
    00:00 +28°C° 0 mm 4 m/S 757 mmHg 62%
    01:00 +28°C° 0 mm 4 m/S 757 mmHg 62%
    02:00 +27°C° 0 mm 4 m/S 757 mmHg 61%
    03:00 +27°C° 0 mm 3 m/S 757 mmHg 63%
    04:00 +26°C° 0 mm 3 m/S 757 mmHg 65%
    05:00 +26°C° 0 mm 3 m/S 756 mmHg 66%
    06:00 +27°C° 0 mm 3 m/S 757 mmHg 63%
    07:00 +28°C° 0 mm 3 m/S 758 mmHg 60%
    08:00 +29°C° 0 mm 3 m/S 758 mmHg 57%
    09:00 +31°C° 0 mm 3 m/S 758 mmHg 50%
    10:00 +34°C° 0 mm 2 m/S 758 mmHg 44%
    11:00 +36°C° 0 mm 2 m/S 758 mmHg 37%
    12:00 +36°C° 0 mm 2 m/S 757 mmHg 36%
    13:00 +37°C° 0 mm 3 m/S 757 mmHg 35%
    14:00 +38°C° 0 mm 4 m/S 756 mmHg 34%
    15:00 +36°C° 0 mm 4 m/S 756 mmHg 44%
    16:00 +34°C° 0 mm 5 m/S 756 mmHg 55%
    17:00 +32°C° 0 mm 6 m/S 756 mmHg 65%
    18:00 +30°C° 0 mm 5 m/S 756 mmHg 67%
    19:00 +30°C° 0 mm 5 m/S 757 mmHg 68%
    20:00 +30°C° 0 mm 5 m/S 757 mmHg 70%
    21:00 +29°C° 0 mm 5 m/S 757 mmHg 67%
    22:00 +29°C° 0 mm 5 m/S 757 mmHg 64%
    23:00 +28°C° 0 mm 4 m/S 757 mmHg 61%

    übermorgen, 22 Oktober, Dienstag

    Zeit Temperatur Niederschläge Wind Luftdruck Luftfeuchtigkeit
    00:00 +28°C° 0 mm 5 m/S 757 mmHg 61%
    01:00 +28°C° 0 mm 5 m/S 757 mmHg 61%
    02:00 +27°C° 0 mm 5 m/S 756 mmHg 61%
    03:00 +27°C° 0 mm 5 m/S 756 mmHg 62%
    04:00 +26°C° 0 mm 5 m/S 756 mmHg 62%
    05:00 +26°C° 0 mm 4 m/S 756 mmHg 62%
    06:00 +27°C° 0 mm 4 m/S 756 mmHg 59%
    07:00 +28°C° 0 mm 4 m/S 757 mmHg 57%
    08:00 +29°C° 0 mm 5 m/S 758 mmHg 54%
    09:00 +32°C° 0 mm 4 m/S 757 mmHg 48%
    10:00 +34°C° 0 mm 3 m/S 757 mmHg 43%
    11:00 +36°C° 0 mm 3 m/S 757 mmHg 37%
    12:00 +36°C° 0 mm 3 m/S 756 mmHg 35%
    13:00 +37°C° 0 mm 4 m/S 756 mmHg 33%
    14:00 +39°C° 0 mm 5 m/S 755 mmHg 31%
    15:00 +36°C° 0 mm 5 m/S 755 mmHg 40%
    16:00 +35°C° 0 mm 5 m/S 755 mmHg 49%
    17:00 +33°C° 0 mm 5 m/S 755 mmHg 57%
    18:00 +32°C° 0 mm 5 m/S 755 mmHg 58%
    19:00 +32°C° 0 mm 6 m/S 755 mmHg 59%
    20:00 +30°C° 0 mm 6 m/S 756 mmHg 59%
    21:00 +29°C° 0 mm 6 m/S 756 mmHg 59%
    22:00 +28°C° 0 mm 7 m/S 756 mmHg 58%
    23:00 +28°C° 0 mm 7 m/S 756 mmHg 58%

    23 Oktober, Mittwoch

    Zeit Temperatur Niederschläge Wind Luftdruck Luftfeuchtigkeit
    00:00 +27°C° 0 mm 6 m/S 755 mmHg 59%
    01:00 +27°C° 0 mm 6 m/S 755 mmHg 60%
    02:00 +27°C° 0 mm 5 m/S 754 mmHg 62%
    03:00 +26°C° 0 mm 5 m/S 755 mmHg 62%
    04:00 +26°C° 0 mm 6 m/S 755 mmHg 63%
    05:00 +26°C° 0 mm 6 m/S 755 mmHg 64%
    06:00 +27°C° 0 mm 6 m/S 755 mmHg 61%
    07:00 +28°C° 0 mm 6 m/S 756 mmHg 59%
    08:00 +29°C° 0 mm 6 m/S 756 mmHg 56%
    09:00 +30°C° 0 mm 5 m/S 756 mmHg 50%
    10:00 +33°C° 0 mm 5 m/S 756 mmHg 44%
    11:00 +35°C° 0 mm 4 m/S 756 mmHg 38%
    12:00 +35°C° 0 mm 3 m/S 755 mmHg 39%
    13:00 +35°C° 0 mm 2 m/S 755 mmHg 39%
    14:00 +34°C° 0 mm 2 m/S 754 mmHg 40%
    15:00 +34°C° 0 mm 2 m/S 754 mmHg 43%
    16:00 +32°C° 0 mm 2 m/S 754 mmHg 47%
    17:00 +31°C° 0 mm 1 m/S 754 mmHg 51%
    18:00 +31°C° 0 mm 2 m/S 755 mmHg 57%
    19:00 +30°C° 0 mm 2 m/S 755 mmHg 63%
    20:00 +29°C° 0 mm 2 m/S 756 mmHg 68%
    21:00 +29°C° 0 mm 2 m/S 756 mmHg 70%
    22:00 +29°C° 0 mm 2 m/S 756 mmHg 73%
    23:00 +28°C° 0 mm 2 m/S 756 mmHg 75%

    24 Oktober, Donnerstag

    Zeit Temperatur Niederschläge Wind Luftdruck Luftfeuchtigkeit
    00:00 +28°C° 0 mm 2 m/S 756 mmHg 77%
    01:00 +28°C° 0 mm 2 m/S 756 mmHg 78%
    02:00 +27°C° 0 mm 2 m/S 756 mmHg 80%
    03:00 +27°C° 0.1 mm 2 m/S 755 mmHg 81%
    04:00 +27°C° 0.1 mm 2 m/S 755 mmHg 82%
    05:00 +27°C° 0.1 mm 3 m/S 755 mmHg 82%
    06:00 +27°C° 0 mm 3 m/S 756 mmHg 78%
    07:00 +28°C° 0 mm 3 m/S 756 mmHg 74%
    08:00 +29°C° 0 mm 3 m/S 757 mmHg 70%
    09:00 +31°C° 0 mm 3 m/S 757 mmHg 65%
    10:00 +33°C° 0 mm 3 m/S 757 mmHg 60%
    11:00 +35°C° 0 mm 3 m/S 757 mmHg 55%
    12:00 +35°C° 0 mm 3 m/S 757 mmHg 53%
    13:00 +36°C° 0 mm 3 m/S 756 mmHg 52%
    14:00 +36°C° 0 mm 3 m/S 755 mmHg 51%
    15:00 +35°C° 0.6 mm 4 m/S 755 mmHg 58%
    16:00 +33°C° 0.6 mm 4 m/S 756 mmHg 66%
    17:00 +30°C° 0.6 mm 5 m/S 756 mmHg 73%
    18:00 +30°C° 0.7 mm 4 m/S 756 mmHg 76%
    19:00 +29°C° 0.7 mm 4 m/S 757 mmHg 79%
    20:00 +28°C° 0.7 mm 4 m/S 757 mmHg 82%
    21:00 +28°C° 0.3 mm 4 m/S 757 mmHg 83%
    22:00 +28°C° 0.3 mm 3 m/S 758 mmHg 84%
    23:00 +28°C° 0.3 mm 3 m/S 758 mmHg 84%

    25 Oktober, Freitag

    Zeit Temperatur Niederschläge Wind Luftdruck Luftfeuchtigkeit
    00:00 +28°C° 0 mm 2 m/S 758 mmHg 85%
    01:00 +27°C° 0 mm 1 m/S 757 mmHg 85%
    02:00 +27°C° 0 mm 1 m/S 757 mmHg 86%
    03:00 +27°C° 0 mm 1 m/S 757 mmHg 86%
    04:00 +27°C° 0 mm 1 m/S 757 mmHg 87%
    05:00 +27°C° 0 mm 1 m/S 757 mmHg 87%
    06:00 +28°C° 0 mm 1 m/S 758 mmHg 84%
    07:00 +29°C° 0 mm 1 m/S 758 mmHg 80%
    08:00 +29°C° 0 mm 1 m/S 758 mmHg 77%
    09:00 +31°C° 0 mm 1 m/S 758 mmHg 71%
    10:00 +32°C° 0 mm 1 m/S 758 mmHg 65%
    11:00 +34°C° 0 mm 1 m/S 758 mmHg 59%
    12:00 +35°C° 0 mm 2 m/S 758 mmHg 57%
    13:00 +36°C° 0 mm 3 m/S 757 mmHg 56%
    14:00 +36°C° 0 mm 3 m/S 756 mmHg 54%
    15:00 +35°C° 0.4 mm 4 m/S 756 mmHg 60%
    16:00 +34°C° 0.4 mm 4 m/S 756 mmHg 66%
    17:00 +32°C° 0.4 mm 4 m/S 757 mmHg 72%
    18:00 +32°C° 0.1 mm 5 m/S 757 mmHg 74%
    19:00 +30°C° 0.1 mm 6 m/S 758 mmHg 76%
    20:00 +29°C° 0.1 mm 6 m/S 758 mmHg 79%
    21:00 +29°C° 0.1 mm 6 m/S 758 mmHg 79%
    22:00 +29°C° 0.1 mm 5 m/S 758 mmHg 79%
    23:00 +29°C° 0.1 mm 5 m/S 758 mmHg 79%
    Mehr zeigen